Weather History for Clemson, SC

Change the Weather History Date:

Tuesday, January 8, 2002

  Actual Average Record
Temperature  
Mean Temperature 35 °F -  
Max Temperature 45 °F 52 °F 72 °F (1939)
Min Temperature 25 °F 30 °F 10 °F (1970)
Degree Days  
Heating Degree Days 30    
Moisture  
Dew Point 17 °F    
Average Humidity 51    
Maximum Humidity 75    
Minimum Humidity 32    
Precipitation  
Precipitation 0.00 in - - ()
Sea Level Pressure  
Sea Level Pressure 30.16 in    
Wind  
Wind Speed 6 mph (SW)    
Max Wind Speed 10 mph    
Max Gust Speed -    
Visibility 10 miles    
Events      
Averages and records for this station are not official NWS values.
T = Trace of Precipitation, MM = Missing Value Source: NWS Daily Summary

Daily Weather History Graph

Daily Weather History Graph

Search for Another Location

Airport:

Trip Planner

Search our weather history database for the weather conditions in past years. The results will help you decide how hot, cold, wet, or windy it might be!

Date:

Astronomy

Jan. 08, 2002 Rise Set
Actual Time 7:39 AM EST 5:37 PM EST
Civil Twilight 7:11 AM EST 6:05 PM EST
Nautical Twilight 6:40 AM EST 6:36 PM EST
Astronomical Twilight 6:09 AM EST 7:06 PM EST
Moon 2:54 AM EST (1/8) 1:54 PM EST (1/8)
Length of Visible Light 10h 53m
Length of Day
9h 58m
Waning Crescent, 23% of the Moon is Illuminated
Jan 8
Waning Crescent
Jan 13
New
Jan 21
First Quarter
Jan 28
Full
Feb 4
Last Quarter

Hourly Weather History & Observations

Time (EST) Temp. Windchill Dew Point Humidity Pressure Visibility Wind Dir Wind Speed Gust Speed Precip Events Conditions
12:54 AM 28.9 °F 23.9 °F 17.1 °F 61% 30.14 in 10.0 mi SSW 4.6 mph - N/A   Clear
1:54 AM 27.0 °F 20.5 °F 17.1 °F 66% 30.14 in 10.0 mi SSW 5.8 mph - N/A   Clear
2:54 AM 27.0 °F 18.7 °F 18.0 °F 69% 30.16 in 10.0 mi WSW 8.1 mph - N/A   Clear
3:54 AM 25.0 °F 17.1 °F 18.0 °F 75% 30.16 in 10.0 mi WSW 6.9 mph - N/A   Clear
4:54 AM 26.1 °F - 17.1 °F 69% 30.16 in 10.0 mi Calm Calm - N/A   Clear
5:54 AM 26.1 °F 19.4 °F 16.0 °F 66% 30.16 in 10.0 mi WSW 5.8 mph - N/A   Clear
6:54 AM 25.0 °F 15.5 °F 16.0 °F 69% 30.17 in 10.0 mi West 9.2 mph - N/A   Clear
7:54 AM 25.0 °F 14.8 °F 15.1 °F 66% 30.18 in 10.0 mi West 10.4 mph - N/A   Clear
8:54 AM 27.0 °F - 16.0 °F 63% 30.18 in 10.0 mi Calm Calm - N/A   Clear
9:54 AM 32.0 °F 25.6 °F 17.1 °F 54% 30.20 in 10.0 mi WSW 6.9 mph - N/A   Clear
10:54 AM 35.1 °F 31.0 °F 17.1 °F 48% 30.21 in 10.0 mi SW 4.6 mph - N/A   Clear
11:54 AM 39.0 °F 35.7 °F 18.0 °F 43% 30.19 in 10.0 mi Variable 4.6 mph - N/A   Clear
12:54 PM 39.9 °F 34.5 °F 18.0 °F 41% 30.17 in 10.0 mi SE 8.1 mph - N/A   Clear
1:54 PM 43.0 °F 41.3 °F 18.0 °F 37% 30.14 in 10.0 mi Variable 3.5 mph - N/A   Clear
2:54 PM 44.1 °F 40.8 °F 16.0 °F 32% 30.13 in 10.0 mi Variable 5.8 mph - N/A   Clear
3:54 PM 45.0 °F 41.2 °F 18.0 °F 34% 30.13 in 10.0 mi SE 6.9 mph - N/A   Clear
4:54 PM 44.1 °F 41.5 °F 19.0 °F 37% 30.13 in 10.0 mi SE 4.6 mph - N/A   Clear
5:54 PM 42.1 °F 40.2 °F 19.9 °F 41% 30.14 in 10.0 mi SE 3.5 mph - N/A   Clear
6:54 PM 41.0 °F 37.1 °F 18.0 °F 40% 30.15 in 10.0 mi South 5.8 mph - N/A   Clear
7:54 PM 39.0 °F 32.8 °F 18.0 °F 43% 30.15 in 10.0 mi SW 9.2 mph - N/A   Clear
8:54 PM 37.9 °F 31.5 °F 17.1 °F 43% 30.14 in 10.0 mi SW 9.2 mph - N/A   Clear
9:54 PM 37.0 °F 29.8 °F 17.1 °F 44% 30.14 in 10.0 mi SW 10.4 mph - N/A   Clear
10:54 PM 37.0 °F 29.8 °F 18.0 °F 46% 30.14 in 10.0 mi SW 10.4 mph - N/A   Clear
11:54 PM 36.0 °F 28.5 °F 17.1 °F 46% 30.13 in 10.0 mi SW 10.4 mph - N/A   Clear